Location: Berlin-Treptow
(52.4814°N, 13.4800°E)
Time: 12:08:04
(UTC+00:00)

Daily predictions for brighter satellites

Satellite Brightness Start Highest point End
(mag) Time Altitude Azimuth Time Altitude Azimuth Time Altitude Azimuth
Cosmos 1140 Rocket 3.6 19:05:45 10° S 19:10:52 56° ESE 19:16:01 10° NNE
USA 276 2.4 19:07:59 10° W 19:11:06 54° S 19:14:14 10° ESE
Cosmos 2360 Rocket 3.6 19:10:14 10° NNW 19:15:00 26° NE 19:19:43 10° E
X-37B 2.2 19:12:56 10° SW 19:15:25 21° S 19:17:55 10° SE
ATLAS 5 CENTAUR R/B 4.5 19:11:13 10° WNW 19:15:36 22° WSW 19:20:26 10° SSW
Cosmos 921 Rocket 3.2 19:12:07 10° NNW 19:16:17 55° ENE 19:20:24 10° SE
Cosmos 1707 Rocket 3.7 19:13:56 10° NNW 19:18:17 79° W 19:22:37 10° S
FALCON 9 DEB 3.4 19:16:26 10° SW 19:19:48 48° SSE 19:23:12 10° E
H-2A R/B 4.5 19:16:19 10° NE 19:19:50 26° E 19:23:22 10° SSE
Genesis I 4.3 19:19:18 10° NW 19:22:56 39° SW 19:26:32 10° SSE
Cosmos 44 4.0 19:18:24 10° NW 19:23:04 46° NE 19:27:57 10° ESE
USA 186 4.1 19:22:37 10° SW 19:23:53 13° W 19:25:08 10° WNW
Cosmos 1980 Rocket 2.5 19:18:44 10° NW 19:24:25 71° WSW 19:30:01 10° SSE
OBJECT-B 1.5 19:22:31 10° S 19:25:45 56° W 19:29:01 10° NNW
CZ-2C R/B 3.7 19:22:52 10° NNE 19:27:29 65° ESE 19:31:58 10° S
Intercosmos 25 4.2 19:24:51 10° NNW 19:28:56 49° W 19:32:05 10° SSW
Cosmos 1470 Rocket 4.0 19:30:06 10° SSE 19:34:14 42° E 19:38:22 10° NNE
Meteor 1-4 Rocket 3.0 19:33:20 10° NNW 19:36:46 59° W 19:40:10 10° S
Cosmos 1697 Rocket 4.2 19:32:27 10° NW 19:37:28 34° WSW 19:42:27 10° S
Cosmos 1833 Rocket 3.0 19:32:32 10° SW 19:38:09 75° WNW 19:43:49 10° NNE
Meteor 2-20 Rocket 4.5 19:32:04 10° N 19:38:17 84° ENE 19:44:27 10° SSE
NOSS 3-2 (A) 3.6 19:32:48 10° SSW 19:38:18 48° ESE 19:44:35 10° NE
USA 267 3.9 19:32:53 10° ENE 19:38:33 31° SE 19:44:11 10° S
Cosmos 1184 Rocket 2.9 19:35:34 10° S 19:38:47 55° E 19:42:03 10° NNE
Sich 1 3.7 19:36:13 10° SSW 19:40:37 61° WNW 19:45:03 10° N
SPOT 5 3.7 19:40:40 12° ESE 19:44:03 31° ENE 19:47:58 10° N
Cosmos 540 Rocket 4.3 19:40:52 10° NNW 19:45:44 39° NE 19:49:56 13° ESE
Cosmos 1862 Rocket 3.7 19:41:15 10° NNW 19:45:45 83° W 19:50:09 10° S
Cosmos 405 Rocket 3.3 19:42:31 10° SSE 19:45:55 35° E 19:49:24 10° NNE
Cosmos 1437 Rocket 3.3 19:43:35 10° N 19:47:12 39° ENE 19:49:58 15° SE
SL-27 R/B 4.0 19:46:33 15° ESE 19:47:20 16° E 19:49:26 10° ENE
NOSS 3-2 (C) 3.9 19:42:30 10° S 19:47:44 37° ESE 19:53:37 10° NE
SPOT 1/Viking Rocket 3.7 19:45:04 11° SSE 19:49:58 61° ENE 19:55:08 10° N
Cosmos 1934 Rocket 4.1 19:45:33 10° S 19:51:56 88° E 19:58:21 10° N
Cosmos 2333 Rocket 3.9 19:47:36 10° NNW 19:52:15 24° NE 19:56:54 10° E
ERBS 3.7 19:49:52 10° WNW 19:52:59 36° N 19:56:05 10° ENE
Landsat 7 3.8 19:48:45 11° SSE 19:53:22 75° ENE 19:58:09 10° NNW
Resurs 01 Rocket 2.2 19:49:10 10° S 19:53:31 56° W 19:57:55 10° NNW
Cosmos 1515 4.2 19:50:44 10° N 19:54:25 43° ENE 19:57:05 17° SE
USA 32 4.0 19:49:33 10° S 19:54:45 69° E 19:59:58 10° N
GP-B 3.1 19:55:26 10° N 19:59:54 84° E 20:04:22 10° S
Cosmos 676 Rocket 4.0 19:54:35 10° SSW 19:59:56 86° ESE 20:05:19 10° NNE
ERS-1 Rocket 3.3 19:56:12 15° SE 20:00:12 51° ENE 20:05:05 10° N
Okean 1 3.3 19:58:47 10° N 20:02:52 75° ENE 20:06:08 15° SSE
Cosmos 841 Rocket 3.9 19:58:30 10° NNW 20:03:38 53° ENE 20:07:29 17° SE
Meteor 1-19 Rocket 4.1 19:58:14 10° N 20:03:41 72° ENE 20:08:21 14° SSE
CARTOSAT-1 3.8 20:06:55 18° SE 20:09:58 57° ENE 20:14:14 10° N
Cosmos 468 Rocket 4.2 20:05:48 10° NNW 20:11:07 75° WSW 20:15:29 15° SSE
BREEZE-M DEB (TANK) 2.2 20:09:11 10° W 20:11:27 35° S 20:11:49 32° SSE
Cosmos 1867 3.7 20:07:56 10° SW 20:13:24 81° NW 20:18:55 10° NE
Cosmos 1933 Rocket 3.5 20:10:32 10° S 20:14:56 73° E 20:19:24 10° NNE
USA 234 3.3 20:10:46 15° ESE 20:16:22 86° SSW 20:22:57 10° WNW
SL-4 R/B 1.7 20:13:21 10° WSW 20:17:17 74° S 20:20:22 14° E
ATLAS 3B R/B 3.5 20:14:38 16° SSE 20:18:16 25° ESE 20:23:29 10° ENE
IGS 5A 3.8 20:15:47 13° S 20:19:25 63° W 20:23:33 10° NNW
Meteor 2-4 Rocket 3.8 20:14:53 10° N 20:20:31 63° ENE 20:24:18 20° SSE
Cosmos 1869 Rocket 4.1 20:23:52 23° SSE 20:26:13 41° E 20:30:26 10° NNE
Iridium 4 Rocket 3.9 20:25:27 23° SE 20:27:09 32° E 20:30:52 10° NNE
Cosmos 1814 Rocket 4.1 20:22:07 10° NNW 20:27:20 65° ENE 20:30:36 23° SE
Meteor 1-14 Rocket 4.3 20:23:20 10° S 20:29:10 70° E 20:35:08 10° NNE
Spot 2 Rocket 4.0 20:25:34 12° S 20:30:11 58° W 20:35:14 10° NNW
SL-16 R/B 2.4 20:24:37 10° NW 20:30:17 70° WSW 20:34:14 20° SSE
Cosmos 2219 Rocket 3.4 20:25:48 10° NNW 20:30:55 33° NE 20:35:05 14° E
CZ-4B DEB 4.4 20:30:11 27° S 20:31:54 81° W 20:35:15 10° NNW
Okean 1-7 3.0 20:28:53 10° NNW 20:33:14 82° W 20:35:59 22° S
Cosmos 1741 Rocket 4.0 20:29:05 10° SSW 20:34:17 68° ESE 20:39:34 10° NNE
Cosmos 1703 Rocket 3.7 20:29:58 10° NNW 20:34:19 72° W 20:37:16 20° S
ATLAS 5 CENTAUR R/B 1.7 20:34:26 10° NW 20:36:49 70° NE 20:39:34 22° ESE
Cosmos 1536 4.3 20:36:28 20° E 20:36:59 20° E 20:39:57 10° NE
USA 238 DEB 3.7 20:30:44 10° SW 20:37:26 90° NW 20:44:28 10° NE
USA 238 3.7 20:30:52 10° SW 20:37:33 90° SSE 20:44:34 10° NE
Cosmos 2322 4.4 20:32:36 10° NNW 20:38:04 45° NE 20:41:39 20° ESE
Cosmos 1570 Rocket 4.0 20:34:05 10° NNW 20:39:27 86° WSW 20:42:42 25° SSE
Cosmos 2082 Rocket 3.3 20:37:03 10° WSW 20:42:31 46° NW 20:48:00 10° NNE
Terra 1.8 20:40:06 26° SSE 20:42:47 75° ENE 20:47:34 10° NNW
Lacrosse 5 2.9 20:38:35 10° WNW 20:43:07 33° SW 20:45:36 21° S
Cosmos 1238 Rocket 3.7 20:44:20 10° SW 20:47:03 33° WNW 20:49:52 10° N
USA 276 3.2 20:44:18 10° W 20:47:07 29° SSW 20:47:07 29° SSW
CENTAUR R/B 2.5 20:41:50 10° SW 20:47:53 74° SE 20:55:10 10° NE
Cosmos 2208 Rocket 4.0 20:42:56 10° NNW 20:48:14 87° WSW 20:51:06 28° SSE
Cosmos 1763 Rocket 4.4 20:43:42 10° NW 20:48:45 44° WSW 20:52:27 17° S
Cosmos 2322 Rocket 2.5 20:43:23 10° NW 20:49:01 63° WSW 20:52:29 24° S
Cosmos 2100 Rocket 3.9 20:45:27 19° S 20:49:53 68° E 20:56:01 10° NNE
X-37B 2.9 20:49:25 10° SW 20:50:24 14° SW 20:50:24 14° SW
FALCON 9 DEB 3.1 20:53:15 10° W 20:56:46 82° N 20:58:46 24° E
Cosmos 2237 4.2 20:51:12 10° NNW 20:56:57 84° WSW 20:59:59 29° SSE
Cosmos 2173 Rocket 3.9 20:52:59 21° S 20:57:14 72° E 21:03:20 10° NNE
Cosmos 1733 Rocket 4.0 20:57:31 28° ESE 20:58:20 31° E 21:02:14 10° NNE
Cosmos 2360 Rocket 2.2 20:54:01 10° NNW 20:59:44 87° WSW 21:02:39 30° SSE
Cosmos 2084 Rocket 3.3 20:55:33 10° SW 20:59:45 74° SE 21:04:04 10° NE
Cosmos 1500 3.0 20:59:53 35° S 21:01:22 86° ESE 21:05:09 10° NNE
Cosmos 44 4.1 20:59:41 10° NW 21:04:19 43° WSW 21:06:35 27° S
Cosmos 1725 Rocket 4.3 21:04:43 29° SSE 21:07:47 52° E 21:13:53 10° NNE
SAR-Lupe-2 3.7 21:05:00 10° NNE 21:08:36 73° WNW 21:10:12 31° SSW
Cosmos 1356 3.7 21:10:48 47° E 21:10:48 47° E 21:14:07 10° NNE
Cosmos 1666 2.8 21:11:57 49° SE 21:12:25 53° E 21:16:06 10° NNE
Cosmos 1459 Rocket 4.0 21:08:09 20° S 21:12:41 89° ESE 21:19:07 10° N
Cosmos 1242 Rocket 2.7 21:12:29 10° N 21:16:05 57° ENE 21:16:36 50° ESE
Cosmos 2016 Rocket 4.0 21:13:23 28° S 21:16:55 70° E 21:23:17 10° NNE
Cosmos 968 Rocket 4.5 21:18:03 27° ESE 21:18:26 27° E 21:22:44 10° NE
COSMOS 2428 3.2 21:13:20 10° NNW 21:18:59 54° NE 21:21:52 28° ESE
Cosmos 44 Rocket 3.7 21:14:58 10° NW 21:19:53 60° NE 21:22:15 30° ESE
Cosmos 2221 Rocket 3.6 21:15:25 10° NNW 21:19:55 80° W 21:21:32 40° S
Cosmos 2346 Rocket 4.4 21:14:02 10° N 21:20:07 88° W 21:23:12 31° S
SPOT 5 3.7 21:19:54 22° SSW 21:22:06 37° W 21:26:14 10° NNW
SL-27 R/B 3.4 21:20:03 19° SW 21:22:07 44° WNW 21:25:19 10° NNE
USA 267 3.1 21:15:40 10° ENE 21:22:14 78° SSE 21:28:48 10° WSW
Cosmos 540 Rocket 4.4 21:22:34 10° NW 21:27:23 40° WSW 21:29:45 25° SSW
Cosmos 1378 3.6 21:24:18 10° N 21:27:55 44° ENE 21:28:16 43° E
Cosmos 1743 4.0 21:28:20 27° E 21:28:20 27° E 21:31:29 10° NNE
Cosmos 2237 Rocket 3.5 21:23:43 10° NNW 21:28:49 33° NE 21:32:28 17° E
NOSS 3-2 (A) 4.2 21:23:14 10° WSW 21:29:07 55° NNW 21:35:59 10° NE
Lacrosse 4 Rocket 2.0 21:29:55 40° ESE 21:29:55 40° ESE 21:33:30 10° NE
ERBS 2.8 21:26:24 10° WNW 21:29:40 55° NNE 21:30:18 45° ENE
CRYOSAT 2 4.5 21:25:58 10° N 21:30:50 61° E 21:32:13 43° SSE
Cosmos 1864 Rocket 4.4 21:27:52 32° S 21:30:56 74° E 21:37:13 10° NNE
NOSS 5 (C) 4.3 21:32:26 70° ESE 21:32:26 70° ESE 21:35:27 10° NE
Cosmos 1378 Rocket 3.8 21:27:57 10° N 21:32:21 56° ENE 21:33:20 45° ESE
Cosmos 1271 Rocket 3.1 21:31:22 10° N 21:35:04 47° ENE 21:35:26 45° E
Cosmos 2333 Rocket 2.2 21:31:37 10° NNW 21:37:27 81° ENE 21:39:44 39° SE
NOSS 3-2 (C) 3.9 21:32:20 10° WSW 21:38:16 66° NW 21:45:10 10° NE
Cosmos 2061 Rocket 4.0 21:37:27 28° SSW 21:40:55 84° W 21:47:10 10° N
Meteor 1-11 Rocket 3.7 21:42:33 31° SSW 21:45:26 84° WNW 21:51:17 10° NNE
Cosmos 1066 Rocket 4.2 21:40:00 10° NNW 21:45:43 79° W 21:47:48 40° S
Cosmos 2233 Rocket 4.1 21:45:59 38° SSE 21:48:28 66° E 21:54:44 10° NNE
Cosmos 1802 Rocket 4.3 21:45:24 22° SSW 21:49:41 65° WNW 21:56:00 10° N
Cosmos 1975 Rocket 4.1 21:48:11 10° N 21:52:18 34° ENE 21:53:12 31° E
COSMOS 2487 2.5 21:55:26 72° NNE 21:55:26 72° NNE 21:58:35 10° NNE
SL-4 R/B 2.2 21:53:03 10° W 21:55:57 48° WSW 21:55:57 48° WSW
Thor Agena Rocket 3.7 21:52:10 10° NNE 21:57:12 56° ESE 21:58:13 47° SE
USA 234 4.0 21:58:07 31° SSW 21:59:56 36° SW 22:05:53 10° WNW
Spot 4 3.8 22:03:39 53° S 22:04:46 77° WSW 22:09:38 10° NNW
ATLAS 3B R/B 2.5 22:01:44 11° SW 22:08:11 89° WNW 22:14:55 10° NE
Cosmos 2227 Rocket 4.1 22:09:37 14° E 22:09:42 14° E 22:12:38 10° ENE
Cosmos 1707 4.4 22:08:29 10° NNE 22:11:44 24° ENE 22:12:09 23° ENE
Cosmos 1536 3.7 22:12:10 36° WSW 22:13:07 44° WNW 22:16:58 10° N
SL-16 R/B 4.4 22:10:40 10° WNW 22:13:22 14° W 22:16:03 10° SW
Cosmos 2219 Rocket 2.3 22:09:39 10° NW 22:15:18 65° WSW 22:16:46 47° S
Cosmos 1674 Rocket 4.1 22:13:16 10° NNW 22:17:26 45° W 22:18:08 41° WSW
NOSS 0 Rocket 3.9 22:11:58 10° NNW 22:18:17 83° ENE 22:20:35 42° SE
Cosmos 783 Rocket 4.5 22:13:59 10° NNW 22:19:17 82° ENE 22:20:35 52° SE
Terra 3.9 22:18:59 14° WSW 22:21:05 18° W 22:24:18 10° NW
Cosmos 2322 4.3 22:16:56 10° NW 22:22:15 42° WSW 22:23:35 36° SW
Cosmos 1842 3.2 22:19:33 10° N 22:23:29 72° ENE 22:23:29 72° ENE
EO 1 Del DPAF 3.2 22:20:09 10° NNE 22:23:43 76° NE 22:23:43 76° NE
MOS 1-B Rocket 4.1 22:21:42 10° NNE 22:27:19 65° WNW 22:29:54 32° SW
Cosmos 2344 4.3 22:19:30 10° NW 22:28:26 79° NE 22:39:29 14° SE
Cosmos 1503 Rocket 4.0 22:29:01 55° SSE 22:30:00 67° ESE 22:35:20 10° NNE
Sich 1 Rocket 4.4 22:31:05 37° E 22:31:06 37° E 22:35:10 10° NNE
Okean 2 3.2 22:27:30 10° NNW 22:31:38 83° W 22:31:45 82° SW
Cosmos 2322 Rocket 4.5 22:29:55 10° WNW 22:31:57 12° W 22:33:59 10° WSW
DNEPR-1 R/B 4.4 22:26:19 10° NW 22:32:33 67° NE 22:34:40 36° ESE
Geosat 4.5 22:33:13 42° SW 22:33:54 44° WSW 22:38:44 10° NW
Meteor 2-11 Rocket 4.4 22:32:28 44° SSW 22:34:33 85° W 22:40:43 10° N
ALOS 2 2.5 22:35:05 67° SW 22:35:27 72° WSW 22:39:52 10° NNW
Cosmos 1486 Rocket 4.1 22:33:51 41° SW 22:35:38 72° WNW 22:40:52 10° NNE
Cosmos 1733 Rocket 4.3 22:34:36 27° WSW 22:36:05 35° WNW 22:40:11 10° N
CENTAUR R/B 3.8 22:32:53 10° W 22:39:07 46° NNW 22:46:31 10° NE
SL-16 R/B 3.2 22:37:27 10° NNW 22:42:51 41° NE 22:46:19 20° ESE
Cosmos 2360 Rocket 4.0 22:39:17 10° WNW 22:42:56 18° W 22:44:24 16° WSW
Cosmos 1975 2.7 22:43:45 80° ENE 22:43:45 80° ENE 22:47:42 10° NNE
Meteor 1-21 4.2 22:40:34 10° NNW 22:46:25 84° W 22:47:53 52° S
SL-24 DEB 4.2 22:48:30 10° N 22:53:19 86° W 22:53:57 67° SSW
Cosmos 773 Rocket 3.8 22:48:51 10° NNW 22:54:01 79° WSW 22:54:49 63° S
Cosmos 1536 Rocket 4.3 22:50:57 10° N 22:55:06 42° ENE 22:55:38 40° E
SL-16 R/B 4.3 22:53:27 10° ESE 22:58:26 26° NE 23:03:25 10° N
Helios 1A 2.8 22:59:36 82° SE 22:59:45 86° ENE 23:04:01 10° NNW
Cosmos 968 Rocket 4.0 22:58:02 35° WSW 22:59:57 54° WNW 23:05:01 10° NNE
Cosmos 1782 Rocket 3.4 23:00:31 74° WSW 23:00:46 77° WNW 23:05:08 10° N
Cosmos 44 Rocket 4.4 22:56:50 10° WNW 23:00:56 31° WSW 23:00:56 31° WSW
Cosmos 2297 Rocket 2.8 23:02:01 38° ESE 23:02:36 39° ESE 23:07:50 10° NE
COSMOS 2428 3.6 22:57:58 10° NW 23:03:04 34° WSW 23:03:51 33° SW
Cosmos 1743 4.0 23:03:24 30° W 23:03:51 31° WNW 23:07:24 10° N
Meteor 2-9 Rocket 4.2 23:03:15 53° SSW 23:04:42 85° WNW 23:10:32 10° NNE
Cosmos 1980 3.7 22:59:22 10° NW 23:05:02 69° WSW 23:06:08 55° S
USA 267 3.6 22:58:45 10° ENE 23:05:14 65° N 23:11:42 10° W
Cosmos 1538 Rocket 3.9 23:00:02 10° NNW 23:05:15 86° ENE 23:06:16 59° SSE
Lacrosse 4 Rocket 2.8 23:06:12 22° W 23:08:19 35° NW 23:12:09 10° NNE
Cosmos 1908 Rocket 4.4 23:07:34 36° W 23:08:21 40° WNW 23:12:28 10° N
Cosmos 1607 4.0 23:03:56 10° NW 23:10:26 82° NE 23:13:36 33° SE
In-Cosmos 22 4.2 23:05:49 10° N 23:11:24 71° ENE 23:12:48 49° SE
Cosmos 2237 Rocket 2.2 23:07:41 10° NW 23:13:17 64° WSW 23:14:16 54° SSW
Cosmos 2219 3.4 23:13:13 49° SE 23:14:01 53° ESE 23:19:29 10° NE
Cosmos 2026 Rocket 4.3 23:12:41 10° N 23:18:43 57° ENE 23:21:06 36° SE
Cosmos 2333 Rocket 3.7 23:16:49 10° NW 23:21:04 22° W 23:21:43 21° WSW
Cosmos 1544 4.5 23:21:39 30° WNW 23:21:42 30° WNW 23:25:01 10° N
Cosmos 1437 4.3 23:21:31 10° NNW 23:23:14 31° NNW 23:23:14 31° NNW
Timation 2 Rocket 3.8 23:26:06 48° SSW 23:27:57 86° ESE 23:34:00 10° NE
Cosmos 1975 Rocket 4.2 23:26:08 10° NNW 23:30:08 32° W 23:30:20 32° W
Meteor 1-12 Rocket 4.3 23:28:45 50° S 23:30:24 79° E 23:36:28 10° NNE
Cosmos 1674 3.2 23:29:31 10° N 23:33:07 51° ENE 23:33:07 51° ENE
Cosmos 1300 Rocket 3.3 23:34:20 83° S 23:34:30 90° E 23:38:51 10° N
Cosmos 1627 Rocket 4.5 23:29:33 10° N 23:35:46 77° E 23:37:58 42° SSE
Cosmos 1634 Rocket 4.3 23:35:14 39° SSE 23:37:17 57° E 23:43:20 10° NNE
Cosmos 1464 Rocket 4.4 23:39:31 36° SW 23:41:46 54° WNW 23:47:49 10° N
Helios 1B rocket 2.7 23:40:54 10° NNE 23:44:56 55° E 23:45:01 55° ESE
Cosmos 1680 Rocket 3.7 23:40:13 10° NNW 23:45:28 69° ENE 23:47:20 39° SE
Cosmos 1766 4.5 23:45:23 31° E 23:45:31 31° E 23:48:57 10° NNE
CZ-2D R/B 3.8 23:41:43 10° NE 23:46:04 24° E 23:48:17 19° ESE
Meteor 2-5 Rocket 4.1 23:40:35 10° N 23:46:09 59° ENE 23:48:23 35° SE
Cosmos 1707 3.8 23:44:05 10° NNW 23:47:18 36° WNW 23:47:18 36° WNW
Nadezhda 4 Rocket 4.4 23:44:16 10° NNW 23:50:17 48° W 23:52:00 39° SW
Okean 2 Rocket 3.2 23:50:15 57° WSW 23:50:45 62° WNW 23:55:15 10° N
Meteor 1-29 4.1 23:48:05 10° NNE 23:50:57 36° E 23:50:57 36° E
Okean 1 Rocket 3.4 23:51:41 49° ESE 23:52:08 51° E 23:56:25 10° NNE
Cosmos 2227 Rocket 2.2 23:51:25 52° S 23:52:47 74° ESE 23:58:28 10° NNE
Cosmos 1025 Rocket 3.5 23:49:17 10° NNW 23:53:18 44° W 23:53:18 44° W
Cosmos 1777 Rocket 4.0 23:52:43 51° SW 23:54:03 76° WNW 23:59:23 10° NNE
Cosmos 1733 4.3 23:55:03 33° E 23:55:15 33° E 23:58:44 10° NNE
SJ 16-02 2.1 23:55:08 39° ESE 23:55:27 40° ESE 23:59:35 10° NE
